LAN894 EGYP-SCCI

Flight info

Callsign LAN894
Flight time 1h 34m
Altitude 30000
Route DIGIS DCT BAPOS DCT CF25
Aircraft F28/M-SDFIRWY/H

Departure

Time 2026-04-27 20:11
Airport Mount Pleasant Airport / RAF Mount Pleasant (EGYP)

Arrival

Time 2026-04-27 21:46
Airport President Carlos Ibáñez International Airport (SCCI)
Time Latitude Longitude Altitude Speed Heading
2026-04-27 19:42 -51.82129 -58.47010 217 ft 0 kts 285°
2026-04-27 20:04 -51.82127 -58.47018 217 ft 4 kts 289°
2026-04-27 20:04 -51.82109 -58.47021 217 ft 4 kts 59°
2026-04-27 20:05 -51.82108 -58.46961 245 ft 6 kts 64°
2026-04-27 20:05 -51.82072 -58.46926 217 ft 6 kts 14°
2026-04-27 20:05 -51.82057 -58.46894 218 ft 4 kts 81°
2026-04-27 20:05 -51.82064 -58.46835 218 ft 7 kts 105°
2026-04-27 20:06 -51.82077 -58.46749 218 ft 9 kts 103°
2026-04-27 20:06 -51.82094 -58.46635 218 ft 12 kts 104°
2026-04-27 20:06 -51.82079 -58.46502 219 ft 14 kts 63°
2026-04-27 20:06 -51.82032 -58.46355 219 ft 16 kts 62°
2026-04-27 20:07 -51.82003 -58.46177 218 ft 17 kts 105°
2026-04-27 20:07 -51.82035 -58.45984 218 ft 18 kts 105°
2026-04-27 20:07 -51.82066 -58.45798 223 ft 17 kts 105°
2026-04-27 20:07 -51.82098 -58.45611 223 ft 17 kts 105°
2026-04-27 20:08 -51.82130 -58.45423 224 ft 17 kts 106°
2026-04-27 20:08 -51.82163 -58.45231 224 ft 18 kts 105°
2026-04-27 20:08 -51.82196 -58.45034 227 ft 19 kts 105°
2026-04-27 20:08 -51.82231 -58.44823 223 ft 20 kts 105°
2026-04-27 20:09 -51.82268 -58.44605 227 ft 20 kts 105°
2026-04-27 20:09 -51.82304 -58.44387 227 ft 20 kts 105°
2026-04-27 20:09 -51.82296 -58.44172 227 ft 20 kts 71°
2026-04-27 20:09 -51.82285 -58.43958 226 ft 19 kts 110°
2026-04-27 20:10 -51.82373 -58.43913 228 ft 14 kts 232°
2026-04-27 20:10 -51.82376 -58.43968 228 ft 0 kts 285°
2026-04-27 20:10 -51.82372 -58.43988 228 ft 11 kts 285°
2026-04-27 20:11 -51.82301 -58.44388 227 ft 67 kts 288°
2026-04-27 20:11 -51.82097 -58.45530 224 ft 142 kts 287°
2026-04-27 20:11 -51.81883 -58.47321 624 ft 182 kts 277°
2026-04-27 20:11 -51.81923 -58.49583 1414 ft 221 kts 271°
2026-04-27 20:12 -51.82043 -58.52144 1932 ft 238 kts 269°
2026-04-27 20:12 -51.82173 -58.53971 2313 ft 244 kts 268°
2026-04-27 20:12 -51.82451 -58.57568 2980 ft 239 kts 267°
2026-04-27 20:12 -51.82637 -58.60192 3486 ft 235 kts 268°
2026-04-27 20:13 -51.82793 -58.62800 4013 ft 231 kts 269°
2026-04-27 20:13 -51.82920 -58.65362 4520 ft 224 kts 269°
2026-04-27 20:13 -51.83022 -58.67882 5002 ft 228 kts 269°
2026-04-27 20:13 -51.83110 -58.70497 5491 ft 237 kts 269°
2026-04-27 20:14 -51.83184 -58.73216 5984 ft 247 kts 269°
2026-04-27 20:14 -51.83249 -58.76047 6469 ft 258 kts 269°
2026-04-27 20:14 -51.83322 -58.78975 6970 ft 260 kts 269°
2026-04-27 20:14 -51.83393 -58.81905 7460 ft 261 kts 269°
2026-04-27 20:15 -51.83456 -58.84849 7960 ft 265 kts 269°
2026-04-27 20:15 -51.83525 -58.87867 8466 ft 272 kts 268°
2026-04-27 20:15 -51.83602 -58.90951 8981 ft 278 kts 268°
2026-04-27 20:15 -51.83674 -58.94118 9509 ft 283 kts 268°
2026-04-27 20:16 -51.83749 -58.97256 9966 ft 281 kts 268°
2026-04-27 20:16 -51.83813 -59.00385 10375 ft 276 kts 268°
2026-04-27 20:16 -51.83885 -59.03538 10776 ft 285 kts 268°
2026-04-27 20:16 -51.83958 -59.06785 11190 ft 293 kts 268°
2026-04-27 20:17 -51.84034 -59.10134 11620 ft 303 kts 268°
2026-04-27 20:17 -51.84112 -59.13591 12046 ft 312 kts 268°
2026-04-27 20:17 -51.84184 -59.17150 12488 ft 321 kts 268°
2026-04-27 20:17 -51.84232 -59.19558 12767 ft 327 kts 268°
2026-04-27 20:18 -51.84335 -59.24570 13335 ft 340 kts 268°
2026-04-27 20:18 -51.84414 -59.28445 13722 ft 349 kts 268°
2026-04-27 20:18 -51.84484 -59.32412 14106 ft 357 kts 269°
2026-04-27 20:18 -51.84553 -59.36451 14479 ft 361 kts 269°
2026-04-27 20:19 -51.84624 -59.40538 14856 ft 366 kts 269°
2026-04-27 20:19 -51.84698 -59.44650 15245 ft 364 kts 269°
2026-04-27 20:19 -51.84772 -59.48753 15633 ft 366 kts 269°
2026-04-27 20:19 -51.84833 -59.52879 16022 ft 369 kts 269°
2026-04-27 20:20 -51.84892 -59.57050 16421 ft 372 kts 269°
2026-04-27 20:20 -51.84959 -59.61253 16820 ft 375 kts 269°
2026-04-27 20:20 -51.85031 -59.65490 17227 ft 377 kts 269°
2026-04-27 20:20 -51.85096 -59.69747 17637 ft 379 kts 269°
2026-04-27 20:21 -51.85158 -59.74023 18033 ft 381 kts 269°
2026-04-27 20:21 -51.85219 -59.78318 18392 ft 382 kts 270°
2026-04-27 20:21 -51.85281 -59.82570 18751 ft 384 kts 270°
2026-04-27 20:21 -51.85344 -59.86886 19118 ft 385 kts 270°
2026-04-27 20:22 -51.85409 -59.91229 19492 ft 385 kts 270°
2026-04-27 20:22 -51.85475 -59.95556 19870 ft 386 kts 270°
2026-04-27 20:22 -51.85541 -59.99904 20240 ft 386 kts 270°
2026-04-27 20:22 -51.85600 -60.04238 20624 ft 386 kts 270°
2026-04-27 20:23 -51.85659 -60.08575 21025 ft 385 kts 270°
2026-04-27 20:23 -51.85717 -60.12896 21409 ft 384 kts 270°
2026-04-27 20:23 -51.85776 -60.17218 21815 ft 383 kts 270°
2026-04-27 20:23 -51.85837 -60.21530 22222 ft 382 kts 270°
2026-04-27 20:24 -51.85895 -60.25827 22638 ft 381 kts 270°
2026-04-27 20:24 -51.85932 -60.30105 23052 ft 379 kts 271°
2026-04-27 20:24 -51.85967 -60.34361 23432 ft 377 kts 271°
2026-04-27 20:24 -51.86003 -60.38599 23785 ft 375 kts 271°
2026-04-27 20:25 -51.86037 -60.42809 24139 ft 373 kts 271°
2026-04-27 20:25 -51.86069 -60.46994 24508 ft 371 kts 271°
2026-04-27 20:25 -51.86103 -60.51154 24893 ft 368 kts 270°
2026-04-27 20:25 -51.86138 -60.55286 25263 ft 366 kts 270°
2026-04-27 20:26 -51.86179 -60.59386 25638 ft 363 kts 270°
2026-04-27 20:26 -51.86224 -60.63470 25931 ft 363 kts 270°
2026-04-27 20:26 -51.86271 -60.67506 26201 ft 363 kts 270°
2026-04-27 20:26 -51.86311 -60.71594 26461 ft 364 kts 271°
2026-04-27 20:27 -51.86332 -60.75688 26724 ft 364 kts 271°
2026-04-27 20:27 -51.86352 -60.79779 26996 ft 364 kts 271°
2026-04-27 20:27 -51.86375 -60.83878 27266 ft 364 kts 271°
2026-04-27 20:27 -51.86397 -60.87966 27538 ft 363 kts 271°
2026-04-27 20:28 -51.86421 -60.92059 27815 ft 363 kts 271°
2026-04-27 20:28 -51.86435 -60.96143 28091 ft 362 kts 271°
2026-04-27 20:28 -51.86455 -61.00220 28356 ft 362 kts 271°
2026-04-27 20:28 -51.86464 -61.02907 28541 ft 361 kts 271°
2026-04-27 20:29 -51.86487 -61.08336 28941 ft 360 kts 270°
2026-04-27 20:29 -51.86498 -61.11014 29145 ft 359 kts 270°
2026-04-27 20:29 -51.86521 -61.15054 29428 ft 358 kts 270°
2026-04-27 20:29 -51.86554 -61.20456 29631 ft 361 kts 270°
2026-04-27 20:30 -51.86574 -61.28642 29656 ft 371 kts 270°
2026-04-27 20:30 -51.86591 -61.35723 29657 ft 379 kts 270°
2026-04-27 20:31 -51.86602 -61.44235 29652 ft 378 kts 270°
2026-04-27 20:31 -51.86614 -61.52673 29646 ft 377 kts 270°
2026-04-27 20:32 -51.86610 -61.61158 29649 ft 376 kts 269°
2026-04-27 20:32 -51.86576 -61.69612 29645 ft 376 kts 269°
2026-04-27 20:33 -51.86576 -61.78055 29647 ft 375 kts 269°
2026-04-27 20:33 -51.86550 -61.86481 29642 ft 375 kts 269°
2026-04-27 20:34 -51.86539 -61.94900 29644 ft 374 kts 269°
2026-04-27 20:34 -51.86497 -62.03324 29633 ft 374 kts 269°
2026-04-27 20:35 -51.86461 -62.11745 29642 ft 373 kts 269°
2026-04-27 20:35 -51.86413 -62.20142 29642 ft 373 kts 269°
2026-04-27 20:36 -51.86365 -62.28485 29645 ft 373 kts 268°
2026-04-27 20:36 -51.86322 -62.36872 29645 ft 373 kts 268°
2026-04-27 20:37 -51.86274 -62.45271 29655 ft 373 kts 268°
2026-04-27 20:37 -51.86685 -62.53596 29651 ft 371 kts 259°
2026-04-27 20:38 -51.87569 -62.61812 29652 ft 371 kts 258°
2026-04-27 20:38 -51.88441 -62.70033 29647 ft 371 kts 259°
2026-04-27 20:39 -51.89220 -62.78293 29657 ft 370 kts 259°
2026-04-27 20:39 -51.89995 -62.86531 29653 ft 370 kts 259°
2026-04-27 20:40 -51.90750 -62.94784 29651 ft 370 kts 259°
2026-04-27 20:40 -51.91516 -63.03030 29649 ft 370 kts 259°
2026-04-27 20:41 -51.92262 -63.11209 29654 ft 370 kts 259°
2026-04-27 20:41 -51.93005 -63.19460 29646 ft 370 kts 259°
2026-04-27 20:42 -51.93763 -63.27696 29653 ft 369 kts 259°
2026-04-27 20:42 -51.94488 -63.35925 29650 ft 368 kts 259°
2026-04-27 20:43 -51.95212 -63.44140 29630 ft 368 kts 259°
2026-04-27 20:43 -51.95925 -63.52357 29643 ft 367 kts 259°
2026-04-27 20:44 -51.96631 -63.60505 29647 ft 367 kts 259°
2026-04-27 20:44 -51.97340 -63.68715 29634 ft 367 kts 259°
2026-04-27 20:45 -51.98040 -63.76911 29644 ft 366 kts 259°
2026-04-27 20:45 -51.98731 -63.85092 29657 ft 366 kts 259°
2026-04-27 20:46 -51.99416 -63.93275 29652 ft 366 kts 259°
2026-04-27 20:46 -52.00094 -64.01454 29654 ft 366 kts 259°
2026-04-27 20:47 -52.00762 -64.09590 29651 ft 365 kts 260°
2026-04-27 20:47 -52.01427 -64.17756 29651 ft 365 kts 260°
2026-04-27 20:48 -52.02084 -64.25940 29650 ft 365 kts 260°
2026-04-27 20:48 -52.02734 -64.34128 29648 ft 365 kts 260°
2026-04-27 20:49 -52.03376 -64.42316 29648 ft 365 kts 260°
2026-04-27 20:49 -52.04012 -64.50498 29654 ft 365 kts 260°
2026-04-27 20:50 -52.04649 -64.58696 29654 ft 365 kts 260°
2026-04-27 20:50 -52.05287 -64.66889 29654 ft 365 kts 260°
2026-04-27 20:51 -52.05918 -64.75079 29649 ft 365 kts 259°
2026-04-27 20:51 -52.06545 -64.83209 29650 ft 365 kts 260°
2026-04-27 20:52 -52.07153 -64.91406 29653 ft 365 kts 260°
2026-04-27 20:52 -52.07766 -64.99591 29647 ft 365 kts 260°
2026-04-27 20:53 -52.08372 -65.07781 29651 ft 365 kts 260°
2026-04-27 20:53 -52.08974 -65.15989 29632 ft 365 kts 260°
2026-04-27 20:54 -52.09865 -65.28267 29656 ft 364 kts 260°
2026-04-27 20:55 -52.10454 -65.36442 29651 ft 364 kts 261°
2026-04-27 20:55 -52.11026 -65.44626 29652 ft 364 kts 260°
2026-04-27 20:56 -52.11605 -65.52809 29656 ft 364 kts 261°
2026-04-27 20:56 -52.12169 -65.60986 29658 ft 364 kts 261°
2026-04-27 20:57 -52.12731 -65.69131 29658 ft 364 kts 261°
2026-04-27 20:57 -52.13274 -65.77317 29652 ft 364 kts 261°
2026-04-27 20:58 -52.13830 -65.85490 29657 ft 363 kts 261°
2026-04-27 20:58 -52.14368 -65.93662 29658 ft 363 kts 261°
2026-04-27 20:59 -52.14909 -66.01826 29656 ft 362 kts 261°
2026-04-27 20:59 -52.15434 -66.09975 29657 ft 362 kts 261°
2026-04-27 21:00 -52.15963 -66.18140 29656 ft 362 kts 261°
2026-04-27 21:00 -52.16485 -66.26293 29668 ft 361 kts 261°
2026-04-27 21:01 -52.16992 -66.34390 29660 ft 360 kts 261°
2026-04-27 21:01 -52.17495 -66.42508 29654 ft 359 kts 261°
2026-04-27 21:02 -52.17995 -66.50598 29656 ft 359 kts 261°
2026-04-27 21:02 -52.18484 -66.58671 29661 ft 358 kts 261°
2026-04-27 21:03 -52.18972 -66.66744 29666 ft 357 kts 261°
2026-04-27 21:03 -52.19449 -66.74751 29669 ft 357 kts 262°
2026-04-27 21:04 -52.19909 -66.82808 29667 ft 356 kts 262°
2026-04-27 21:04 -52.20369 -66.90847 29646 ft 355 kts 261°
2026-04-27 21:05 -52.20848 -66.98870 29664 ft 355 kts 262°
2026-04-27 21:05 -52.21295 -67.06883 29665 ft 355 kts 262°
2026-04-27 21:06 -52.21744 -67.14890 29669 ft 355 kts 262°
2026-04-27 21:06 -52.22190 -67.22903 29662 ft 355 kts 262°
2026-04-27 21:07 -52.22609 -67.30869 29672 ft 354 kts 262°
2026-04-27 21:07 -52.23046 -67.38874 29677 ft 354 kts 262°
2026-04-27 21:08 -52.23468 -67.46890 29681 ft 355 kts 262°
2026-04-27 21:08 -52.23894 -67.54900 29679 ft 355 kts 262°
2026-04-27 21:09 -52.24307 -67.62933 29682 ft 355 kts 262°
2026-04-27 21:09 -52.24723 -67.70955 29679 ft 355 kts 262°
2026-04-27 21:10 -52.25139 -67.78986 29682 ft 355 kts 262°
2026-04-27 21:10 -52.25535 -67.87017 29681 ft 355 kts 262°
2026-04-27 21:11 -52.25933 -67.95051 29687 ft 355 kts 262°
2026-04-27 21:11 -52.26319 -68.03100 29688 ft 355 kts 262°
2026-04-27 21:12 -52.26702 -68.11096 29687 ft 356 kts 263°
2026-04-27 21:12 -52.27083 -68.19167 29682 ft 356 kts 263°
2026-04-27 21:13 -52.27458 -68.27218 29674 ft 356 kts 262°
2026-04-27 21:13 -52.27842 -68.35278 29679 ft 356 kts 262°
2026-04-27 21:14 -52.28201 -68.43333 29681 ft 356 kts 262°
2026-04-27 21:14 -52.28558 -68.51389 29680 ft 356 kts 263°
2026-04-27 21:15 -52.28915 -68.59459 29677 ft 356 kts 262°
2026-04-27 21:15 -52.29258 -68.67522 29670 ft 356 kts 262°
2026-04-27 21:16 -52.29582 -68.75544 29679 ft 356 kts 262°
2026-04-27 21:16 -52.29742 -68.79606 29384 ft 362 kts 262°
2026-04-27 21:16 -52.29912 -68.83702 28930 ft 361 kts 262°
2026-04-27 21:16 -52.30071 -68.87787 28482 ft 360 kts 262°
2026-04-27 21:17 -52.30258 -68.91849 28041 ft 356 kts 257°
2026-04-27 21:17 -52.31087 -68.95583 27603 ft 348 kts 239°
2026-04-27 21:17 -52.32400 -68.98892 27187 ft 345 kts 234°
2026-04-27 21:17 -52.33824 -69.02043 26764 ft 343 kts 233°
2026-04-27 21:18 -52.35262 -69.05130 26346 ft 340 kts 233°
2026-04-27 21:18 -52.36205 -69.07153 26087 ft 337 kts 233°
2026-04-27 21:18 -52.37611 -69.10193 25704 ft 332 kts 233°
2026-04-27 21:18 -52.38971 -69.13192 25332 ft 324 kts 234°
2026-04-27 21:19 -52.40291 -69.16130 24944 ft 317 kts 234°
2026-04-27 21:19 -52.41559 -69.19016 24571 ft 308 kts 235°
2026-04-27 21:19 -52.42808 -69.21902 24184 ft 312 kts 235°
2026-04-27 21:20 -52.45339 -69.27733 23510 ft 316 kts 235°
2026-04-27 21:20 -52.46611 -69.30669 23170 ft 315 kts 235°
2026-04-27 21:20 -52.47878 -69.33589 22775 ft 312 kts 236°
2026-04-27 21:20 -52.49129 -69.36493 22384 ft 311 kts 236°
2026-04-27 21:21 -52.50379 -69.39400 22000 ft 311 kts 236°
2026-04-27 21:21 -52.51625 -69.42299 21617 ft 311 kts 236°
2026-04-27 21:21 -52.52857 -69.45161 21255 ft 310 kts 236°
2026-04-27 21:21 -52.54105 -69.48057 20874 ft 310 kts 236°
2026-04-27 21:22 -52.55352 -69.50940 20502 ft 310 kts 236°
2026-04-27 21:22 -52.56601 -69.53822 20136 ft 310 kts 236°
2026-04-27 21:22 -52.57850 -69.56701 19778 ft 307 kts 236°
2026-04-27 21:22 -52.59089 -69.59543 19430 ft 304 kts 236°
2026-04-27 21:23 -52.60315 -69.62367 19078 ft 301 kts 236°
2026-04-27 21:23 -52.61523 -69.65164 18730 ft 299 kts 236°
2026-04-27 21:23 -52.62719 -69.67938 18385 ft 296 kts 236°
2026-04-27 21:23 -52.63909 -69.70695 18047 ft 294 kts 236°
2026-04-27 21:24 -52.65076 -69.73437 17669 ft 291 kts 237°
2026-04-27 21:24 -52.66237 -69.76163 17279 ft 289 kts 236°
2026-04-27 21:24 -52.67394 -69.78865 16894 ft 287 kts 236°
2026-04-27 21:24 -52.68542 -69.81543 16538 ft 284 kts 236°
2026-04-27 21:25 -52.69674 -69.84189 16216 ft 283 kts 236°
2026-04-27 21:25 -52.70802 -69.86861 15901 ft 284 kts 236°
2026-04-27 21:25 -52.71926 -69.89512 15586 ft 285 kts 236°
2026-04-27 21:25 -52.73069 -69.92203 15275 ft 286 kts 236°
2026-04-27 21:26 -52.74208 -69.94893 14968 ft 286 kts 236°
2026-04-27 21:26 -52.75340 -69.97572 14666 ft 281 kts 236°
2026-04-27 21:26 -52.76444 -70.00189 14360 ft 275 kts 236°
2026-04-27 21:26 -52.77529 -70.02766 14055 ft 271 kts 236°
2026-04-27 21:27 -52.78599 -70.05313 13748 ft 267 kts 237°
2026-04-27 21:27 -52.79657 -70.07837 13447 ft 269 kts 237°
2026-04-27 21:27 -52.80729 -70.10399 13118 ft 273 kts 237°
2026-04-27 21:27 -52.81814 -70.12997 12785 ft 277 kts 237°
2026-04-27 21:28 -52.82917 -70.15636 12517 ft 280 kts 237°
2026-04-27 21:28 -52.84013 -70.18240 12203 ft 278 kts 237°
2026-04-27 21:28 -52.85108 -70.20838 11894 ft 271 kts 237°
2026-04-27 21:28 -52.86175 -70.23367 11583 ft 264 kts 237°
2026-04-27 21:29 -52.87222 -70.25853 11263 ft 263 kts 237°
2026-04-27 21:29 -52.88260 -70.28329 10977 ft 261 kts 237°
2026-04-27 21:29 -52.89288 -70.30792 10700 ft 261 kts 237°
2026-04-27 21:29 -52.90328 -70.33288 10428 ft 262 kts 237°
2026-04-27 21:30 -52.91355 -70.35766 10149 ft 259 kts 237°
2026-04-27 21:30 -52.92370 -70.38215 9861 ft 256 kts 237°
2026-04-27 21:30 -52.93368 -70.40630 9584 ft 252 kts 237°
2026-04-27 21:30 -52.94347 -70.43004 9321 ft 244 kts 236°
2026-04-27 21:31 -52.95285 -70.45274 9032 ft 234 kts 237°
2026-04-27 21:31 -52.96190 -70.47465 8744 ft 225 kts 237°
2026-04-27 21:31 -52.97052 -70.49541 8485 ft 217 kts 237°
2026-04-27 21:31 -52.97897 -70.51561 8242 ft 209 kts 237°
2026-04-27 21:32 -52.98715 -70.53506 8004 ft 202 kts 237°
2026-04-27 21:32 -52.99455 -70.55429 7777 ft 194 kts 250°
2026-04-27 21:32 -52.99702 -70.57586 7564 ft 188 kts 262°
2026-04-27 21:32 -52.99783 -70.59727 7358 ft 182 kts 265°
2026-04-27 21:33 -52.99807 -70.61778 7160 ft 173 kts 266°
2026-04-27 21:33 -52.99817 -70.63729 6942 ft 165 kts 266°
2026-04-27 21:33 -52.99831 -70.65650 6740 ft 168 kts 265°
2026-04-27 21:33 -53.00232 -70.67426 6529 ft 173 kts 229°
2026-04-27 21:34 -53.01387 -70.68167 6342 ft 195 kts 190°
2026-04-27 21:34 -53.02760 -70.67883 6166 ft 203 kts 181°
2026-04-27 21:34 -53.04151 -70.67403 5964 ft 206 kts 179°
2026-04-27 21:34 -53.05556 -70.66859 5731 ft 209 kts 178°
2026-04-27 21:35 -53.06931 -70.65866 5478 ft 228 kts 150°
2026-04-27 21:35 -53.07858 -70.63671 5255 ft 240 kts 115°
2026-04-27 21:35 -53.08090 -70.60920 5035 ft 240 kts 93°
2026-04-27 21:35 -53.08062 -70.58173 4794 ft 237 kts 89°
2026-04-27 21:36 -53.07978 -70.55411 4533 ft 241 kts 88°
2026-04-27 21:36 -53.07879 -70.52651 4274 ft 244 kts 88°
2026-04-27 21:36 -53.07774 -70.49815 4000 ft 247 kts 87°
2026-04-27 21:36 -53.07668 -70.46943 3721 ft 250 kts 88°
2026-04-27 21:37 -53.07542 -70.44090 3442 ft 246 kts 82°
2026-04-27 21:37 -53.06891 -70.41534 3167 ft 236 kts 46°
2026-04-27 21:37 -53.05638 -70.39997 2892 ft 216 kts 11°
2026-04-27 21:37 -53.04255 -70.39903 2703 ft 186 kts 332°
2026-04-27 21:38 -53.03289 -70.40993 2642 ft 155 kts 308°
2026-04-27 21:38 -53.02564 -70.42224 2629 ft 150 kts 303°
2026-04-27 21:38 -53.01979 -70.43676 2637 ft 154 kts 293°
2026-04-27 21:38 -53.01496 -70.45288 2647 ft 158 kts 288°
2026-04-27 21:39 -53.01096 -70.47001 2654 ft 160 kts 284°
2026-04-27 21:39 -53.00754 -70.48740 2641 ft 153 kts 280°
2026-04-27 21:39 -53.00531 -70.50370 2612 ft 136 kts 277°
2026-04-27 21:39 -53.00384 -70.51852 2589 ft 127 kts 274°
2026-04-27 21:40 -53.00281 -70.53315 2592 ft 129 kts 272°
2026-04-27 21:40 -53.00200 -70.54792 2624 ft 129 kts 272°
2026-04-27 21:40 -53.00125 -70.56317 2645 ft 136 kts 272°
2026-04-27 21:40 -53.00051 -70.57907 2653 ft 140 kts 272°
2026-04-27 21:41 -52.99978 -70.59528 2666 ft 142 kts 272°
2026-04-27 21:41 -52.99908 -70.61173 2672 ft 143 kts 272°
2026-04-27 21:41 -52.99852 -70.62828 2616 ft 146 kts 271°
2026-04-27 21:41 -52.99829 -70.64499 2380 ft 141 kts 269°
2026-04-27 21:42 -52.99839 -70.66076 2183 ft 135 kts 268°
2026-04-27 21:42 -52.99851 -70.67598 2011 ft 128 kts 268°
2026-04-27 21:42 -52.99871 -70.69043 1827 ft 123 kts 268°
2026-04-27 21:42 -52.99898 -70.70434 1656 ft 118 kts 269°
2026-04-27 21:43 -52.99916 -70.71748 1504 ft 109 kts 269°
2026-04-27 21:43 -52.99929 -70.72994 1352 ft 107 kts 269°
2026-04-27 21:43 -52.99933 -70.74232 1191 ft 106 kts 267°
2026-04-27 21:43 -52.99950 -70.75452 1055 ft 106 kts 267°
2026-04-27 21:44 -52.99965 -70.76687 936 ft 107 kts 269°
2026-04-27 21:44 -52.99963 -70.77925 808 ft 108 kts 266°
2026-04-27 21:44 -53.00001 -70.79178 650 ft 107 kts 266°
2026-04-27 21:44 -53.00035 -70.80373 499 ft 101 kts 265°
2026-04-27 21:45 -53.00059 -70.81509 351 ft 95 kts 267°
2026-04-27 21:45 -53.00036 -70.82561 211 ft 88 kts 270°
2026-04-27 21:45 -53.00064 -70.83594 125 ft 94 kts 265°
2026-04-27 21:45 -53.00078 -70.84663 118 ft 85 kts 266°
2026-04-27 21:46 -53.00091 -70.85415 113 ft 51 kts 269°
2026-04-27 21:46 -53.00097 -70.85886 114 ft 33 kts 268°
2026-04-27 21:46 -53.00099 -70.86181 115 ft 20 kts 269°
2026-04-27 21:46 -53.00138 -70.86317 113 ft 7 kts 168°
2026-04-27 21:47 -53.00157 -70.86293 115 ft 5 kts 137°
2026-04-27 21:47 -53.00195 -70.86235 114 ft 10 kts 137°
2026-04-27 21:47 -53.00255 -70.86141 113 ft 14 kts 129°
2026-04-27 21:47 -53.00269 -70.85965 112 ft 17 kts 89°
2026-04-27 21:48 -53.00269 -70.85753 112 ft 19 kts 90°
2026-04-27 21:48 -53.00267 -70.85521 111 ft 21 kts 88°
2026-04-27 21:48 -53.00261 -70.85268 113 ft 23 kts 89°
2026-04-27 21:48 -53.00257 -70.84993 114 ft 25 kts 89°
2026-04-27 21:49 -53.00278 -70.84736 114 ft 19 kts 140°
2026-04-27 21:49 -53.00382 -70.84599 113 ft 19 kts 105°
2026-04-27 21:49 -53.00399 -70.84457 111 ft 7 kts 156°
2026-04-27 21:49 -53.00450 -70.84451 113 ft 7 kts 177°
2026-04-27 21:50 -53.00460 -70.84449 113 ft 0 kts 176°